Showing default

COSMOS 1561, 15000

Orbit data source: Space-Track

COSMOS 1561, 15000 is a payload satellite owned by GUKOS (CIS) in LEO that was launched on Mon, 28 May 1984 UTC via a KOSMOS 11K65M launch vehicle from the Plesetsk Missile And Space Complex (PKMTR). Payloads include a variety of satellites, spacecraft, and rockets equipped with specific instruments for various scientific and technological missions. These include communications satellites like Starlink; space stations such as the ISS; scientific satellites like the Hubble; Earth observation satellites from companies like Planet Labs, Umbra, and HawkEye 360; GPS; miniature CubeSats for education and research; and military/defense satellites.

Loading next visibility...
COSMOS 1561 details
Identifier
15000, 1984-052C
Orbit
LEO
Last TLE update1 day ago
Origin
Flag of CISGUKOS (CIS)
ManufacturerNPO PM
MissionDefense Communications
Bus & MotorSTRELA-1 11F625, Unknown motor
Mass60 kg wet, 60 kg dry
Launch date (UTC)
1984-05-28 (41 years ago)
Launch vehicle
KOSMOS 11K65M
Launch site
Plesetsk Missile And Space Complex (PKMTR)
Object type
Payload
Rocket body
Debris
Shape & HBRSphere, 0.8 m
Radar Cross Section0.588 m², Medium (>0.1 m² and < 1m²)

Expand to show TLE details & history

TLE from 1 day ago
0 COSMOS 1561
1 15000U 84052C   25022.34257810  .00000006  00000-0  15118-3 0  9991
2 15000  74.0147 347.9717 0015914 295.4121 216.9781 12.47980878852006
Epoch: 2025-01-22T08:13Z
Definitive object data (Epoch: 2025-01-22T08:13:18.747Z)
Latitude26.60016°
Longitude-85.49929°
Altitude1,485.69 km
Speed7.119 km/s
True Right ascension10h 39m 03s
True Declination26° 28' 32"
Sunlit
Object was in full shadow at TLE epoch
Visualization TLE readout
Latitude-41.04866°
Longitude-64.74541°
Altitude1,484.025 km
Speed7.123 km/s
Apparent Right ascension09h 35m 46s
Apparent Declination-48° 28' 39"
Sunlit
Object is in daylight
Visualization observer readout
Local Sidereal Time18:30:52
Azimuth239.678° WSW
Elevation-56.323°
Doppler factor1
Orbital elements
Apogee altitude1,483.281 km
Perigee altitude1,458.3 km
Semi-major axis7,848.927 km
Eccentricity0.0015914
Inclination74.0147°
RAAN347.9717°
Arg. of periapsis295.4121°
True anomaly216.86858°
Mean anomaly216.9781°
Eccentric anomaly216.92332°
Mean motion3.12124 °/min
BSTAR0.00015118
Orbital period115.34 mins
Loading maneuver chart data...
Loading historical data...
Loading historical data...
Loading historical data...
Loading historical data...
Loading historical data...
Loading historical data...
Loading historical data...

COSMOS 1561 Visibility forecast

Observer location: undefined°, undefined

Span
Click to sort rows by Start time (UTC) header in descending order
Start Az.
Max El. time (UTC)
Max El. Az.
Max El.
End time (UTC)
End Az.
15 mins2025-01-23 21:58:10.676Z173.862° S2025-01-23 22:06:10.676Z90.047° ESE39.116°2025-01-23 22:13:10.676Z29.249° NE
14 mins2025-01-23 23:57:10.676Z243.066° WSW2025-01-24 00:04:10.676Z306.605° NW29.567°2025-01-24 00:11:10.676Z3.358° NNE
6 mins2025-01-24 06:11:10.676Z24.739° NE2025-01-24 06:13:10.676Z39.004° NE12.965°2025-01-24 06:17:10.676Z67.004° ENE
15 mins2025-01-24 08:06:10.676Z350.12° N2025-01-24 08:13:10.676Z55.723° ENE40.184°2025-01-24 08:21:10.676Z142.283° SSE
12 mins2025-01-24 10:05:10.676Z314.515° NW2025-01-24 10:11:10.676Z260.484° W27.115°2025-01-24 10:17:10.676Z211.779° SW
|